Location: Stone Trail Observatory
(44.2408°N, 105.6081°W)
Time: 18:51:39
(UTC-06:00)

Iridium 6 - Visible Passes

Search period start: 26 July 2017 00:00
Search period end: 05 August 2017 00:00
Orbit: 776 x 779 km, 86.4° (Epoch: 26 July)

Date Brightness Start Highest point End Pass type
(mag) Time Alt. Az. Time Alt. Az. Time Alt. Az.
26 Jul 5.4 01:15:57 79° WSW 01:16:03 80° W 01:21:18 10° N visible
26 Jul 7.9 02:57:20 10° WNW 02:57:40 10° WNW 02:58:01 10° WNW visible
27 Jul 5.7 00:42:32 57° E 00:42:34 57° E 00:47:41 10° N visible
27 Jul 7.3 02:23:01 18° W 02:23:42 18° WNW 02:27:17 10° NNW visible
28 Jul 6.6 00:09:08 32° E 00:09:12 32° E 00:13:48 10° NNE visible
28 Jul 6.6 01:49:36 31° W 01:49:53 32° WNW 01:54:32 10° NNW visible
28 Jul 7.3 23:35:43 18° E 23:35:58 19° ENE 23:39:29 10° NE visible
29 Jul 5.8 01:16:10 56° W 01:16:12 56° W 01:21:21 10° N visible
30 Jul 5.4 00:42:46 81° ENE 00:42:46 81° ENE 00:47:52 10° N visible
30 Jul 7.7 02:23:14 13° W 02:24:03 13° WNW 02:26:26 10° NW visible
31 Jul 6.1 00:09:20 45° E 00:09:20 45° E 00:14:10 10° NNE visible
31 Jul 7.1 01:49:48 23° W 01:50:09 23° WNW 01:54:14 10° NNW visible
31 Jul 6.8 23:35:54 26° E 23:35:54 26° E 23:40:08 10° NNE visible
01 Aug 6.4 01:16:22 39° W 01:16:23 39° W 01:21:17 10° NNW visible
01 Aug 7.5 23:02:28 15° E 23:02:42 15° ENE 23:05:29 10° NE visible
02 Aug 5.6 00:42:56 70° WNW 00:42:56 70° WNW 00:47:58 10° N visible
03 Aug 5.6 00:09:29 64° ENE 00:09:29 64° ENE 00:14:25 10° N visible
03 Aug 7.5 01:49:57 16° W 01:50:28 16° WNW 01:53:42 10° NNW visible
03 Aug 6.4 23:36:02 36° E 23:36:02 36° E 23:40:35 10° NNE visible
04 Aug 6.9 01:16:30 28° W 01:16:37 28° WNW 01:21:06 10° NNW visible
04 Aug 7.1 23:02:34 21° E 23:02:35 21° E 23:06:23 10° NNE visible
